Location: Unspecified
(0.0000°N, 0.0000°E)
Time: 06:12:16
(UTC+00:00)

Transit 4A - Pass Details

Date: 04 October 2020
Orbit: 862 x 982 km, 66.8° (Epoch: 28 October)

Event Time Altitude Azimuth Distance (km) Brightness Sun altitude
Rises 18:24:29 0° 185° (S) 3,463 11.0 -9.0°
Reaches altitude 10° 18:27:07 10° 177° (S) 2,535 10.2 -9.6°
Maximum altitude 18:32:31 38° 109° (ESE) 1,326 8.3 -11.0°
Drops below altitude 10° 18:38:03 10° 42° (NE) 2,597 9.8 -12.3°
Enters shadow 18:39:58 - 36° (NE) 3,272 10.4 -12.8°
Sets 18:40:45 0° 35° (NE) 3,557 - -13.0°
